Regional Weather Roundup
Issued by NWS

Home | Current Version | Previous Version | Graphics & Text | Print | Product List | Glossary On
Versions: 1 2 3 4 5 6 7 8 9 10 11 12 13 14 15 16 17 18 19 20 21 22 23 24 25 26 27 28 29 30 31 32 33 34 35 36 37 38 39 40 41 42 43 44 45 46 47 48 49 50
000
ASUS43 KLOT 301808
RWRIL

ILLINOIS REGIONAL WEATHER ROUNDUP
NATIONAL WEATHER SERVICE CHICAGO/ROMEOVILLE IL
100 PM CDT MON MAY 30 2016

NOTE: "FAIR" INDICATES FEW OR NO CLOUDS BELOW 12,000 FEET WITH NO
SIGNIFICANT WEATHER AND/OR OBSTRUCTIONS TO VISIBILITY.

* THESE STATIONS ARE NOT UNDER NWS QUALITY CONTROL. THEY ALSO MAY NOT
  REPORT WEATHER SUCH AS PRECIPITATION OR FOG.

ILZ001-002-007-009-015-016-024-301900-
NORTHWEST ILLINOIS

CITY           SKY/WX    TMP DP  RH WIND       PRES   REMARKS
MOLINE         SUNNY     84  61  45 NW7       30.02F HX  84
6HR MIN TEMP:  68; 6HR MAX TEMP:  84; 6HR PCP:  0.01;

STERLING*      SUNNY     84  62  47 NW13      30.02F HX  85
SAVANNA*       SUNNY     83  53  35 NW12      30.02F HX  81
$$

ILZ003-004-008-010-011-017-018-301900-
NORTH CENTRAL ILLINOIS

CITY           SKY/WX    TMP DP  RH WIND       PRES   REMARKS
ROCKFORD       MOSUNNY   84  56  38 NW14      30.03F HX  83
6HR MIN TEMP:  64; 6HR MAX TEMP:  84;

FREEPORT*      SUNNY     80  54  41 NW9G17    30.04F HX  80
ROCHELLE*      SUNNY     82  60  47 W10G16    30.02F HX  82
DE KALB*       SUNNY     82  62  50 W15       30.02F HX  83
$$

ILZ005-006-012>014-019>023-301900-
NORTHEAST ILLINOIS

CITY           SKY/WX    TMP DP  RH WIND       PRES   REMARKS
CHICAGO-OHARE  MOSUNNY   84  60  44 NW12      30.00F HX  84
6HR MIN TEMP:  68; 6HR MAX TEMP:  84;

CHICAGO-MIDWAY MOSUNNY   85  59  41 W10       30.00F HX  84
6HR MIN TEMP:  70; 6HR MAX TEMP:  85;

AURORA         SUNNY     85  62  46 NW15      30.01F HX  85
6HR MIN TEMP:  66; 6HR MAX TEMP:  85;

LANSING*       MOSUNNY   84  58  41 W9        30.01F HX  83
JOLIET*        MOSUNNY   87  60  40 NW8G16    30.00F HX  86
WAUKEGAN       PTSUNNY   76  60  57 E9        30.01S
6HR MIN TEMP:  67; 6HR MAX TEMP:  81;

DUPAGE AIRPORT SUNNY     83  58  42 NW14G21   30.00F HX  83
6HR MIN TEMP:  65; 6HR MAX TEMP:  84;

KANKAKEE*      MOSUNNY   85  56  36 W7        30.02F HX  84
WHEELING       MOSUNNY   82  58  43 NW13      30.02F HX  82
6HR MIN TEMP:  69; 6HR MAX TEMP:  83;

MORRIS*        MOSUNNY   87  56  34 W15G21    29.99F HX  85
ROMEOVILLE*    MOSUNNY   86  53  31 NW18      30.01F HX  84
NORTHERLY ISL    N/A     70  57  63 NE2         N/A
NORTHERLY ISL    N/A     70  57  63 NE2         N/A
$$

LMZ740>746-301900-
SOUTHERN LAKE MICHIGAN

STATION/POSITION SKY/WX   TEMP    WIND        PRES    VSBY  WAVE
                          AIR SEA DIR/SP/G                  HT/PER
                          (F)     (DEG/KT/KT) (MB)    (MI)  (FT/S)
SOUTHERN BUOY              58 55  170/  2/  4 1016.7F         0
WILMETTE HARBOR            63 57  110/  6/  6   N/A           0
HARRISON CRIB              69      80/ 10/ 10   N/A
BURNHAM HARBOR             71      10/  3/  6   N/A
CALUMET HARBOR             69      50/  8/  9 1016.2F
BURNS HARBOR               69      50/  9/ 10 1017.3F
MICHIGAN CITY              68     360/ 10/ 10   N/A
MICHIGAN CITY 6N           65 63   40/  6/  8   N/A           1
ST. JOSEPH                 65 65  320/  2/  2   N/A           1
$$

ILZ025>027-034>036-040-047-049-050-058-095>099-301900-
WEST-CENTRAL ILLINOIS

CITY           SKY/WX    TMP DP  RH WIND       PRES   REMARKS
QUINCY         CLOUDY    83  64  52 VRB3      30.04F HX  84
GALESBURG*     MOSUNNY   82  55  38 S3        30.03F HX  82
MACOMB*        SUNNY     83  56  40 CALM      30.05F HX  82
JACKSONVILLE*  PTSUNNY   86  59  40 W7        30.04F HX  85
PITTSFIELD*    MOSUNNY   83  63  51 CALM      30.06S HX  84
$$

ILZ028>032-037-038-041>044-048-051>054-059>061-301900-
CENTRAL ILLINOIS

CITY           SKY/WX    TMP DP  RH WIND       PRES   REMARKS
PONTIAC        MOSUNNY   87  54  31 W8        30.02F HX  85
BLOOMINGTON    MOSUNNY   85  64  49 W10       30.05F HX  86
DECATUR        MOSUNNY   84  60  44 SW5       30.04F HX  84
PEORIA         SUNNY     85  57  38 NW8       30.02F HX  84
6HR MIN TEMP:  65; 6HR MAX TEMP:  85;

LACON*         CLOUDY    83  60  45 NW7       30.01F HX  83
LINCOLN*       MOSUNNY   86  63  45 NW3       30.03F HX  87
SPRINGFIELD    MOSUNNY   87  59  38 VRB5      30.04F HX  86
6HR MIN TEMP:  69; 6HR MAX TEMP:  88;

TAYLORVILLE    MOSUNNY   85  62  45 W6        30.04F HX  85
6HR MIN TEMP:  65; 6HR MAX TEMP:  85;

$$

ILZ033-039-045-046-055>057-062-063-301900-
EAST-CENTRAL ILLINOIS

CITY           SKY/WX    TMP DP  RH WIND       PRES   REMARKS
CHAMPAIGN      MOSUNNY   88  54  31 W6        30.05S HX  86
MATTOON        PTSUNNY   83  55  38 CALM      30.04F HX  82
PARIS*         MOSUNNY   84  58  40 CALM      30.05F HX  83
$$

ILZ079-100>102-301900-
SOUTHWEST ILLINOIS

CITY           SKY/WX    TMP DP  RH WIND       PRES   REMARKS
BELLEVILLE     PTSUNNY   85  64  48 SW5       30.04S HX  87
CAHOKIA*       MOSUNNY   87  57  35 CALM      30.04F HX  86
SPARTA*        SUNNY     83  62  47 CALM      30.06F HX  84
$$

ILZ064>066-069>071-074>076-080>082-084>086-088>090-092>094-301900-
SOUTH-CENTRAL ILLINOIS

CITY           SKY/WX    TMP DP  RH WIND       PRES   REMARKS
CARBONDALE     SUNNY     85  59  41 VRB3      30.05F HX  84
6HR MIN TEMP:  65; 6HR MAX TEMP:  85;

CAIRO*         SUNNY     84  60  43 CALM      30.05F HX  84
EFFINGHAM*     SUNNY     84  62  48 SW3       30.07F HX  85
MARION         PTSUNNY   86  64  48 NE8       30.06F HX  87
MT. VERNON     MOSUNNY   82  61  47 CALM      30.06F HX  83
CENTRALIA*     MOSUNNY   85  64  48 N7        30.05S HX  87
SALEM*         SUNNY     85  62  46 W3        30.06S HX  86
METROPOLIS*    PTSUNNY   85  65  52 W3        30.06F HX  86
$$

ILZ067-068-072-073-078-083-087-091-301900-
SOUTHEAST ILLINOIS

CITY           SKY/WX    TMP DP  RH WIND       PRES   REMARKS
LAWRENCEVILLE  MOSUNNY   85  57  38 N5        30.06S HX  84
FLORA*         MOSUNNY   86  62  43 NW6       30.06S HX  86
FAIRFIELD*     PTSUNNY   83  61  47 NW3       30.05S HX  83
HARRISBURG*    MOSUNNY   84  64  50 NE6       30.06S HX  85
ROBINSON*      MOSUNNY   84  59  43 N8        30.06F HX  84
CARMI*         MOSUNNY   84  61  45 N7        30.04F HX  84
$$

ABBREVIATIONS USED IN REMARKS
   TC - TEMPERATURE IN CELSIUS
  WCI - WIND CHILL INDEX
   HX - HEAT INDEX
  VSB - VISIBILITY
$$





USA.gov is the U.S. government's official web portal to all federal, state and local government web resources and services.